EW3649 Weather Reports


time (UTC)temp
C
wind
direction
speed
KPH
gust
KPH
rain 1hr
cm
rain 24hr
cm
rain mn
cm
humidity
%
barometer
mb
20260506062006 11 0 0.0 0.0 0.00 0.00 0.00 88 1016.2
20260506061505 11 0 0.0 0.0 0.00 0.00 0.00 88 1016.1
20260506061006 11 0 0.0 0.0 0.00 0.00 0.00 88 1016.0
20260506060504 11 0 0.0 0.0 0.00 0.00 0.00 88 1015.9
20260506051006 12 0 0.0 0.0 0.00 0.00 0.00 85 1015.5
20260506050505 12 0 0.0 0.0 0.00 0.00 0.00 85 1015.6
20260506045005 13 0 0.0 0.0 0.00 0.00 0.00 84 1015.4
20260506044005 13 0 0.0 0.0 0.00 0.00 0.00 84 1015.5
20260506043505 13 0 0.0 0.0 0.00 0.00 0.00 83 1015.5
20260506042505 13 0 0.0 0.0 0.00 0.00 0.00 82 1015.4
20260506042006 13 0 0.0 0.0 0.00 0.00 0.00 82 1015.4
20260506041504 13 0 0.0 0.0 0.00 0.00 0.00 82 1015.4
20260506041005 14 0 0.0 0.0 0.00 0.00 0.00 82 1015.4
20260506040505 14 0 0.0 0.0 0.00 0.00 0.00 81 1015.3
20260506040006 14 0 0.0 0.0 0.00 0.00 0.00 81 1015.3
20260506035504 15 0 0.0 0.0 0.00 0.00 0.00 80 1015.2
20260506035006 15 0 0.0 0.0 0.00 0.00 0.00 79 1015.2
20260506034505 15 0 0.0 0.0 0.00 0.00 0.00 78 1015.1
20260506034006 15 0 0.0 0.0 0.00 0.00 0.00 78 1015.1
20260506033505 15 0 0.0 0.0 0.00 0.00 0.00 78 1015.0
20260506032505 15 0 0.0 0.0 0.00 0.00 0.00 76 1015.0
20260506032006 16 0 0.0 0.0 0.00 0.00 0.00 76 1014.9
20260506031505 16 0 0.0 0.0 0.00 0.00 0.00 76 1014.8
20260506031005 16 0 0.0 0.0 0.00 0.00 0.00 76 1014.8
20260506030005 16 0 0.0 0.0 0.00 0.00 0.00 75 1014.8
20260506025504 16 0 0.0 0.0 0.00 0.00 0.00 75 1014.7
20260506025006 16 0 0.0 0.0 0.00 0.00 0.00 75 1014.7
20260506024505 16 0 0.0 0.0 0.00 0.00 0.00 74 1014.7
20260506024005 16 0 0.0 0.0 0.00 0.00 0.00 74 1014.7
20260506023504 16 0 0.0 0.0 0.00 0.00 0.00 73 1014.7
20260506022505 16 0 0.0 0.0 0.00 0.00 0.00 74 1014.7
20260506022006 16 0 0.0 0.0 0.00 0.00 0.00 74 1014.7
20260506021505 16 0 0.0 0.0 0.00 0.00 0.00 73 1014.7
20260506021006 16 0 0.0 0.0 0.00 0.00 0.00 73 1014.8
20260506020504 17 0 0.0 0.0 0.00 0.00 0.00 73 1014.7
20260506020005 17 0 0.0 0.0 0.00 0.00 0.00 73 1014.7
20260506015505 17 0 0.0 0.0 0.00 0.00 0.00 73 1014.6
20260506015005 17 0 0.0 0.0 0.00 0.00 0.00 72 1014.6
20260506014505 17 0 0.0 0.0 0.00 0.00 0.00 72 1014.6
20260506014006 17 0 0.0 0.0 0.00 0.00 0.00 72 1014.5
20260506013505 17 0 0.0 0.0 0.00 0.00 0.00 72 1014.6
20260506013005 17 0 0.0 0.0 0.00 0.00 0.00 72 1014.6
20260506012504 17 194 0.0 1.6 0.00 0.00 0.00 71 1014.6
20260506012005 17 194 0.0 1.6 0.00 0.00 0.00 72 1014.6
20260506011505 17 0 0.0 0.0 0.00 0.00 0.00 72 1014.6
20260506010505 17 0 0.0 0.0 0.00 0.00 0.00 72 1014.6
20260506010006 17 0 0.0 0.0 0.00 0.00 0.00 71 1014.7
20260506005006 17 194 0.0 1.6 0.00 0.00 0.00 71 1014.7
20260506004506 17 0 0.0 0.0 0.00 0.00 0.00 71 1014.7
20260506004005 17 0 0.0 0.0 0.00 0.00 0.00 71 1014.7
20260506003505 17 0 0.0 0.0 0.00 0.00 0.00 71 1014.8
20260506003005 17 0 0.0 0.0 0.00 0.00 0.00 71 1014.8
20260506002505 17 203 0.0 3.2 0.00 0.00 0.00 69 1014.7
20260506002005 17 203 0.0 3.2 0.00 0.00 0.00 69 1014.8
20260506001505 17 203 0.0 1.6 0.00 0.00 0.00 70 1014.8
20260506001004 18 203 0.0 1.6 0.00 0.00 0.00 69 1014.9
20260506000504 18 0 0.0 0.0 0.00 0.00 0.00 69 1015.0
20260506000005 18 0 0.0 0.0 0.00 0.00 0.00 70 1015.0
20260505235005 18 0 0.0 0.0 0.00 0.00 0.00 68 1015.1
20260505234505 18 0 0.0 0.0 0.00 0.00 0.00 68 1015.2
20260505234006 18 0 0.0 0.0 0.00 0.00 0.00 70 1015.3
20260505233504 17 0 0.0 0.0 0.00 0.00 0.00 72 1015.3
20260505233006 17 0 0.0 0.0 0.00 0.00 0.00 71 1015.3
20260505232504 17 201 0.0 3.2 0.00 0.00 0.00 72 1015.3
20260505232006 17 201 0.0 3.2 0.00 0.00 0.00 70 1015.4
20260505230504 17 0 0.0 0.0 0.00 0.00 0.00 72 1015.4
20260505230006 16 0 0.0 0.0 0.00 0.00 0.00 74 1015.5
20260505225504 16 0 0.0 0.0 0.00 0.00 0.00 73 1015.6
20260505225006 16 0 0.0 0.0 0.00 0.00 0.00 73 1015.7
20260505224504 16 0 0.0 0.0 0.00 0.00 0.00 74 1015.7
20260505224005 16 0 0.0 0.0 0.00 0.00 0.00 74 1015.7
20260505223005 16 0 0.0 0.0 0.00 0.00 0.00 74 1015.8
20260505222505 16 0 0.0 0.0 0.00 0.00 0.00 74 1015.9
20260505222005 16 0 0.0 0.0 0.00 0.00 0.00 74 1015.9
20260505221505 16 0 0.0 0.0 0.00 0.00 0.00 74 1016.0
20260505221005 16 0 0.0 0.0 0.00 0.00 0.00 74 1016.0
20260505220505 16 0 0.0 0.0 0.00 0.00 0.00 74 1016.0
20260505220005 16 0 0.0 0.0 0.00 0.00 0.00 74 1016.1
20260505215505 16 0 0.0 0.0 0.00 0.00 0.00 75 1016.1
20260505215004 16 0 0.0 0.0 0.00 0.00 0.00 75 1016.1
20260505214504 16 0 0.0 0.0 0.00 0.00 0.00 76 1016.1
20260505214005 15 0 0.0 0.0 0.00 0.00 0.00 76 1016.2
20260505213504 15 0 0.0 0.0 0.00 0.00 0.00 76 1016.2
20260505212504 15 0 0.0 0.0 0.00 0.00 0.00 76 1016.1
20260505212006 15 0 0.0 0.0 0.00 0.00 0.00 76 1016.2
20260505211504 15 0 0.0 0.0 0.00 0.00 0.00 76 1016.1
20260505211005 15 200 0.0 3.2 0.00 0.00 0.00 76 1016.1
20260505210504 15 200 0.0 3.2 0.00 0.00 0.00 76 1016.2
20260505210006 15 200 0.0 3.2 0.00 0.00 0.00 76 1016.2
20260505205004 15 0 0.0 0.0 0.00 0.00 0.00 77 1016.3
20260505204504 15 0 0.0 0.0 0.00 0.00 0.00 77 1016.3
20260505204004 15 0 0.0 0.0 0.00 0.00 0.00 77 1016.3
20260505203504 15 0 0.0 0.0 0.00 0.00 0.00 76 1016.3
20260505203004 15 0 0.0 0.0 0.00 0.00 0.00 77 1016.2
20260505202504 15 0 0.0 0.0 0.00 0.00 0.00 77 1016.3
20260505202006 15 201 0.0 3.2 0.00 0.00 0.00 78 1016.2
20260505201504 15 201 0.0 3.2 0.00 0.00 0.00 77 1016.2
20260505201004 15 0 0.0 0.0 0.00 0.00 0.00 78 1016.2
20260505200505 14 0 0.0 0.0 0.00 0.00 0.00 79 1016.2
20260505195504 14 198 0.0 4.8 0.00 0.00 0.00 78 1016.3
20260505194504 14 198 0.0 3.2 0.00 0.00 0.00 79 1016.2
20260505193504 14 198 0.0 4.8 0.00 0.00 0.00 79 1016.2
20260505193006 14 198 0.0 3.2 0.00 0.00 0.00 79 1016.1
20260505192504 14 198 0.0 1.6 0.00 0.00 0.00 79 1016.2
20260505192006 14 0 0.0 0.0 0.00 0.00 0.00 79 1016.2
20260505191504 14 0 0.0 0.0 0.00 0.00 0.00 79 1016.1
20260505191005 14 0 0.0 0.0 0.00 0.00 0.00 80 1016.2
20260505190504 14 0 0.0 0.0 0.00 0.00 0.00 79 1016.2
20260505190006 14 196 0.0 3.2 0.00 0.00 0.00 80 1016.2
20260505185504 13 196 0.0 3.2 0.00 0.00 0.00 80 1016.2
20260505185006 13 197 0.0 3.2 0.00 0.00 0.00 80 1016.2
20260505184504 13 196 0.0 3.2 0.00 0.00 0.00 80 1016.2
20260505184006 13 196 0.0 3.2 0.00 0.00 0.00 80 1016.2
20260505183504 13 196 0.0 3.2 0.00 0.00 0.00 80 1016.2
20260505183004 13 192 0.0 8.0 0.00 0.00 0.00 80 1016.1
20260505182505 13 192 0.0 8.0 0.00 0.00 0.00 81 1016.2
20260505182005 13 0 0.0 0.0 0.00 0.00 0.00 80 1016.1
20260505181504 13 0 0.0 0.0 0.00 0.00 0.00 80 1016.2
20260505181005 13 186 0.0 1.6 0.00 0.00 0.00 81 1016.1
20260505180505 13 186 0.0 1.6 0.00 0.00 0.00 81 1016.1
20260505180005 13 0 0.0 0.0 0.00 0.00 0.00 81 1016.2
20260505175504 13 0 0.0 0.0 0.00 0.00 0.00 82 1016.1
20260505175005 13 186 0.0 3.2 0.00 0.00 0.00 82 1016.1
20260505174505 13 199 0.0 3.2 0.00 0.00 0.00 81 1016.0
20260505174005 13 222 0.0 4.8 0.00 0.00 0.00 82 1016.0
20260505173504 13 224 0.0 4.8 0.00 0.00 0.00 81 1016.0
20260505172504 13 0 0.0 0.0 0.00 0.00 0.00 82 1016.0
20260505172005 13 0 0.0 0.0 0.00 0.00 0.00 82 1015.9
20260505171505 13 0 0.0 0.0 0.00 0.00 0.00 81 1016.0
20260505171005 13 0 0.0 0.0 0.00 0.00 0.00 82 1016.0
20260505170505 13 0 0.0 0.0 0.00 0.00 0.00 82 1015.9
20260505170006 13 0 0.0 0.0 0.00 0.00 0.00 82 1015.9
20260505165504 13 0 0.0 0.0 0.00 0.00 0.00 83 1015.9
20260505165006 13 0 0.0 0.0 0.00 0.00 0.00 82 1015.8
20260505164505 12 288 0.0 3.2 0.00 0.00 0.00 82 1015.8
20260505164005 12 282 0.0 3.2 0.00 0.00 0.00 82 1015.8
20260505163504 12 248 0.0 6.4 0.00 0.00 0.00 83 1015.8
20260505163008 12 248 1.6 6.4 0.00 0.00 0.00 83 1015.8
20260505162504 12 248 0.0 4.8 0.00 0.00 0.00 83 1015.8
20260505162005 12 248 0.0 1.6 0.00 0.00 0.00 83 1015.8
20260505161504 12 248 0.0 1.6 0.00 0.00 0.00 83 1015.7
20260505161005 12 248 0.0 1.6 0.00 0.00 0.00 83 1015.6
20260505160504 12 248 0.0 6.4 0.00 0.00 0.00 83 1015.7
20260505153005 12 246 0.0 3.2 0.00 0.00 0.00 85 1015.6
20260505152504 12 246 0.0 3.2 0.00 0.00 0.00 85 1015.6
20260505152006 12 0 0.0 0.0 0.00 0.00 0.00 85 1015.6
20260505151504 12 0 0.0 0.0 0.00 0.00 0.00 85 1015.5
20260505151005 12 0 0.0 0.0 0.00 0.00 0.00 85 1015.4
20260505150504 12 0 0.0 0.0 0.00 0.00 0.00 84 1015.4
20260505140504 12 0 0.0 0.0 0.00 0.00 0.00 85 1014.8
20260505125005 12 0 0.0 0.0 0.00 0.00 0.00 86 1014.1
20260505124504 12 0 0.0 0.0 0.00 0.00 0.00 86 1014.2
20260505124005 12 247 0.0 3.2 0.00 0.00 0.00 86 1014.1
20260505123504 12 247 0.0 3.2 0.00 0.00 0.00 86 1014.1
20260505123005 12 246 0.0 1.6 0.00 0.00 0.00 86 1014.0
20260505122006 12 0 0.0 0.0 0.00 0.00 0.00 86 1014.0
20260505121504 12 0 0.0 0.0 0.00 0.00 0.00 86 1014.0
20260505120504 12 0 0.0 0.0 0.00 0.00 0.00 86 1014.0
20260505120006 12 0 0.0 0.0 0.00 0.00 0.00 86 1014.0
20260505115504 12 0 0.0 0.0 0.00 0.00 0.00 86 1013.9
20260505115005 12 0 0.0 0.0 0.00 0.00 0.00 86 1013.9
20260505114504 12 0 0.0 0.0 0.00 0.00 0.00 86 1013.9
20260505114006 12 0 0.0 0.0 0.00 0.00 0.00 86 1014.0
20260505113504 12 0 0.0 0.0 0.00 0.00 0.00 86 1013.9
20260505113006 12 0 0.0 0.0 0.00 0.00 0.00 86 1013.9
20260505112504 12 0 0.0 0.0 0.00 0.00 0.00 86 1013.8
20260505112005 12 246 0.0 3.2 0.00 0.00 0.00 86 1013.9
20260505111503 12 246 0.0 8.0 0.00 0.00 0.00 86 1013.8
20260505111007 12 246 0.0 8.0 0.00 0.00 0.00 86 1013.8
20260505110504 12 246 0.0 6.4 0.00 0.00 0.00 86 1013.8
20260505102004 12 0 0.0 0.0 0.00 0.00 0.00 87 1013.5
20260505101504 12 0 0.0 0.0 0.00 0.00 0.00 87 1013.4
20260505101004 12 0 0.0 0.0 0.00 0.00 0.00 87 1013.4
20260505100503 12 0 0.0 0.0 0.00 0.00 0.00 87 1013.3
20260505100003 12 0 0.0 0.0 0.00 0.00 0.00 87 1013.4
20260505095504 12 0 0.0 0.0 0.00 0.00 0.00 87 1013.3
20260505095005 12 245 0.0 6.4 0.00 0.00 0.00 87 1013.3
20260505094503 12 245 0.0 6.4 0.00 0.00 0.00 87 1013.2
20260505094004 12 245 0.0 4.8 0.00 0.00 0.00 88 1013.2
20260505093005 12 245 0.0 1.6 0.00 0.00 0.00 88 1013.1
20260505092503 11 245 0.0 1.6 0.00 0.00 0.00 88 1013.1
20260505092005 11 245 0.0 1.6 0.00 0.00 0.00 88 1013.1
20260505091005 11 245 0.0 1.6 0.00 0.00 0.00 88 1013.0
20260505090503 11 0 0.0 0.0 0.00 0.00 0.00 88 1013.0
20260505085504 11 0 0.0 0.0 0.00 0.00 0.00 88 1012.9
20260505085004 11 0 0.0 0.0 0.00 0.00 0.00 87 1012.9
20260505084503 11 0 0.0 0.0 0.00 0.00 0.00 87 1013.0
20260505084005 11 0 0.0 0.0 0.00 0.00 0.00 87 1013.0
20260505083004 12 0 0.0 0.0 0.00 0.00 0.00 86 1012.9
20260505082504 12 0 0.0 0.0 0.00 0.00 0.00 86 1012.9
20260505082004 12 0 0.0 0.0 0.00 0.00 0.00 86 1012.9
20260505081504 12 0 0.0 0.0 0.00 0.00 0.00 86 1012.9
20260505081004 12 0 0.0 0.0 0.00 0.00 0.00 86 1012.8
20260505080504 12 0 0.0 0.0 0.00 0.00 0.00 86 1012.8
20260505080004 12 0 0.0 0.0 0.00 0.00 0.00 86 1012.7
20260505075504 12 0 0.0 0.0 0.00 0.00 0.00 85 1012.8
20260505075005 12 0 0.0 0.0 0.00 0.00 0.00 85 1012.8
20260505074505 12 0 0.0 0.0 0.00 0.00 0.00 85 1012.7
20260505074006 12 0 0.0 0.0 0.00 0.00 0.00 85 1012.6
20260505073505 12 0 0.0 0.0 0.00 0.00 0.00 84 1012.6
20260505073006 12 245 0.0 1.6 0.00 0.00 0.00 84 1012.6
20260505072505 12 245 0.0 3.2 0.00 0.00 0.00 85 1012.5
20260505071505 12 245 0.0 3.2 0.00 0.00 0.00 85 1012.4
20260505071006 12 0 0.0 0.0 0.00 0.00 0.00 85 1012.4
20260505070505 12 0 0.0 0.0 0.00 0.00 0.00 85 1012.3
20260505070011 12 0 0.0 0.0 0.00 0.00 0.00 85 1012.2
20260505065505 12 0 0.0 0.0 0.00 0.00 0.00 85 1012.2
20260505064505 13 0 0.0 0.0 0.00 0.00 0.00 84 1012.1
20260505064006 13 0 0.0 0.0 0.00 0.00 0.00 83 1011.9
20260505063505 13 0 0.0 0.0 0.00 0.00 0.00 83 1011.9